Onweer radar Meer informatie blitzortung!


Regen radar Meer informatie rain snow radar


Bezoek onze andere website:

Template documentation
and downloads

And another site



15 daagse weersverwachting Haugesund (NO)

  • Overzicht
  • Per uur
  • 15 dagen
  • Extra
  • Vergelijk
  • Kaarten
  • Dagkaart
  • Meer »
  • Info
  • Statistieken
  • Directe link
    Temp 6h Neerslag Wind  
 07:54     19:02    Daglengte: 11:08 Vandaag
14:00
14°
0.4 mm
10
warningclass
20:00
13°
22.5 mm
8
 07:56     18:59    Daglengte: 11:03 Morgen
02:00
12°
12.6 mm
2
08:00
11°
 
4
14:00
14°
34.0 mm
13
warningclass
20:00
12°
29.8 mm
7
 07:58     18:57    Daglengte: 10:59 Donderdag 06 Okt
02:00
11°
 
8
08:00
11°
43.2 mm
10
14:00
12°
49.5 mm
11
warningclass
20:00
12°
61.4 mm
9
 08:01     18:54    Daglengte: 10:53 Vrijdag 07 Okt
02:00
12°
53.7 mm
7
08:00
13°
88.1 mm
11
Locatie info
Region: Rogaland
Latitude: 59.4120°N
Longitude: 5.2698°E
17 masl
Postcode: 5527
Temp/Neerslag /Baro Onweer/Dauwpunt
    Temp Baro 1h Neerslag Dauwpunt Wind UV Bewolking  
 07:54     19:02    Daglengte: 11:08 Vandaag
12:00
14°
1007.5 hPa
48%
11.0°
10
Windvlaag: 17.8 m/s
86% warningclass
13:00
14°
1006.9 hPa
82%
11.6°
10
Windvlaag: 17.7 m/s
86% warningclass
14:00
14°
1006.1 hPa 0.4 mm
82%
11.6°
10
Windvlaag: 17.7 m/s
86% warningclass
15:00
14°
1005.5 hPa 0.7 mm
82%
12.0°
10
Windvlaag: 17.1 m/s
86% warningclass
16:00
14°
1004.5 hPa 1.1 mm
82%
12.3°
10
Windvlaag: 17.2 m/s
86% warningclass
17:00
14°
1003.7 hPa 2.0 mm
82%
12.5°
9
Windvlaag: 17.2 m/s
86% warningclass
18:00
13°
1003.0 hPa 4.9 mm
82%
12.7°
9
Windvlaag: 16.9 m/s
86%
19:00
13°
1002.8 hPa 6.4 mm
82%
12.7°
9
Windvlaag: 15.3 m/s
86%
20:00
13°
1002.4 hPa 7.5 mm
82%
12.8°
8
Windvlaag: 13.2 m/s
86%
21:00
13°
1002.6 hPa 5.6 mm
82%
12.3°
5
Windvlaag: 6.7 m/s
86%
22:00
12°
1003.3 hPa 3.7 mm
82%
11.7°
4
Windvlaag: -4.4 m/s
86%
23:00
12°
1004.0 hPa 3.3 mm
77%
11.6°
3
Windvlaag: -1.8 m/s
86%
 07:56     18:59    Daglengte: 11:03 Morgen
00:00
12°
1004.4 hPa
25%
11.3°
3
Windvlaag: -0.1 m/s
80%
01:00
12°
1004.9 hPa
29%
11.2°
3
Windvlaag: -0.6 m/s
60%
02:00
12°
1004.9 hPa
21%
10.7°
2
Windvlaag: -1.4 m/s
69%
03:00
12°
1004.7 hPa
20%
10.4°
1
Windvlaag: -0.7 m/s
70%
04:00
11°
1004.2 hPa
22%
10.2°
1
Windvlaag: 1.1 m/s
84%
05:00
11°
1003.3 hPa
21%
9.9°
2
Windvlaag: 2.9 m/s
85%
06:00
11°
1002.3 hPa
14%
10.0°
3
Windvlaag: 3 m/s
66%
07:00
11°
1001.3 hPa
15%
10.5°
3
Windvlaag: 3.8 m/s
78%
08:00
11°
999.9 hPa
14%
10.8°
4
Windvlaag: 7.3 m/s
84%
09:00
12°
998.4 hPa
29%
11.0°
5
Windvlaag: 9.1 m/s
85%
10:00
12°
996.8 hPa 4.9 mm
82%
10.8°
6
Windvlaag: 9.5 m/s
86%
11:00
12°
994.9 hPa 5.8 mm
82%
11.5°
8
Windvlaag: 11.2 m/s
86%
12:00
13°
993.5 hPa 6.5 mm
82%
12.0°
9
Windvlaag: 17.2 m/s
86% warningclass
13:00
14°
991.9 hPa 7.4 mm
82%
12.8°
11
Windvlaag: 19.7 m/s
86% warningclass
14:00
14°
990.5 hPa 9.4 mm
82%
13.7°
13
Windvlaag: 20.8 m/s
86% warningclass
15:00
15°
989.6 hPa 7.8 mm
82%
13.5°
13
Windvlaag: 21.5 m/s
86% warningclass
16:00
14°
990.0 hPa 8.0 mm
82%
12.6°
13
Windvlaag: 20.7 m/s
86% warningclass
17:00
12°
992.8 hPa 7.3 mm
82%
9.6°
10
Windvlaag: 13.9 m/s
86%
18:00
12°
995.1 hPa
70%
7.8°
9
Windvlaag: 3.1 m/s
23%
19:00
12°
996.7 hPa
78%
7.2°
8
Windvlaag: 2.6 m/s
49%
20:00
12°
997.5 hPa 6.7 mm
82%
7.4°
7
Windvlaag: 5.5 m/s
51%
21:00
11°
998.1 hPa
82%
9.1°
7
Windvlaag: 5.5 m/s
31%
22:00
11°
998.8 hPa
82%
9.4°
8
Windvlaag: 7 m/s
34%
23:00
12°
999.5 hPa
40%
9.4°
7
Windvlaag: 7.6 m/s
7%
 07:58     18:57    Daglengte: 10:59 Donderdag 06 Okt
00:00
12°
999.9 hPa
25%
9.4°
7
Windvlaag: 8.3 m/s
6%
01:00
11°
1000.3 hPa
36%
8.4°
8
Windvlaag: 10.9 m/s
13%
02:00
11°
1000.5 hPa
33%
8.5°
8
Windvlaag: 10.3 m/s
16%
03:00
12°
1000.6 hPa
34%
8.7°
8
Windvlaag: 10.5 m/s
76%
04:00
11°
1000.9 hPa 7.5 mm
81%
9.3°
10
Windvlaag: 7.3 m/s
86%
05:00
11°
1000.8 hPa 7.9 mm
100%
8.5°
10
Windvlaag: 7.4 m/s
100%
06:00
11°
1001.6 hPa 8.0 mm
100%
7.4°
10
Windvlaag: 7.5 m/s
97%
07:00
11°
1002.4 hPa 12.4 mm
100%
8.0°
10
Windvlaag: 5.5 m/s
91%
08:00
11°
1003.2 hPa 7.5 mm
100%
8.0°
10
Windvlaag: 4.5 m/s
98%
09:00
11°
1004.0 hPa 7.8 mm
100%
8.3°
9
Windvlaag: 4.7 m/s
97%
10:00
11°
1004.6 hPa 8.1 mm
100%
8.1°
8
Windvlaag: 6.6 m/s
99%
11:00
11°
1004.7 hPa 8.1 mm
100%
8.5°
9
Windvlaag: 8.5 m/s
100%
12:00
11°
1004.8 hPa 8.8 mm
100%
9.3°
11
Windvlaag: 10.4 m/s
100%
13:00
11°
1005.1 hPa 8.4 mm
100%
7.6°
10
Windvlaag: 10.2 m/s
76%
14:00
12°
1005.9 hPa 8.3 mm
100%
7.2°
11
Windvlaag: 7.2 m/s
43% warningclass
15:00
12°
1006.7 hPa 7.9 mm
100%
8.1°
11
Windvlaag: 8.1 m/s
47%
16:00
12°
1007.3 hPa
54%
8.2°
12
Windvlaag: 8.6 m/s
56%
17:00
12°
1007.9 hPa 13.4 mm
100%
8.3°
11
Windvlaag: 9.1 m/s
80%
18:00
12°
1008.2 hPa 13.5 mm
100%
7.3°
11
Windvlaag: 9.1 m/s
79%
19:00
12°
1008.8 hPa 13.2 mm
100%
7.5°
10
Windvlaag: 9.5 m/s
75%
20:00
12°
1009.2 hPa 13.3 mm
41%
8.0°
9
Windvlaag: 9.1 m/s
45%
21:00
12°
1009.4 hPa 13.5 mm
40%
8.4°
9
Windvlaag: 10.3 m/s
36%
22:00
12°
1009.5 hPa 13.5 mm
42%
8.0°
9
Windvlaag: 10.3 m/s
62%
23:00
12°
1009.5 hPa 13.3 mm
47%
8.3°
7
Windvlaag: 10.6 m/s
84%
 08:01     18:54    Daglengte: 10:53 Vrijdag 07 Okt
00:00
12°
1009.4 hPa
95%
9.1°
6
Windvlaag: 12.3 m/s
92%
01:00
12°
1008.9 hPa
100%
9.5°
8
Windvlaag: 12.3 m/s
94%
02:00
12°
1007.8 hPa 13.3 mm
100%
9.3°
7
Windvlaag: 13.3 m/s
99%
03:00
12°
1006.3 hPa
100%
9.7°
8
Windvlaag: 14.2 m/s
100%
04:00
12°
1004.6 hPa 15.2 mm
100%
11.2°
9
Windvlaag: 14.5 m/s
100%
05:00
12°
1002.6 hPa 17.5 mm
100%
11.7°
10
Windvlaag: 10.2 m/s
100%
06:00
13°
1001.3 hPa 18.4 mm
100%
12.4°
12
Windvlaag: 16.1 m/s
100%
07:00
13°
1001.0 hPa 18.6 mm
100%
11.5°
12
Windvlaag: 16.7 m/s
100%
08:00
13°
1001.0 hPa 18.5 mm
100%
11.4°
11
Windvlaag: 15.9 m/s
100%
09:00
13°
1001.4 hPa 52.8 mm
100%
11.0°
12
Windvlaag: 16 m/s
100%
10:00
13°
1000.8 hPa 53.2 mm
100%
11.0°
12
Windvlaag: 16.8 m/s
100%
11:00
13°
1000.1 hPa 54.0 mm
100%
11.3°
12
Windvlaag: 17.1 m/s
100% warningclass
Temp/Neerslag /Baro Onweer/Dauwpunt
    Temp Baro Neerslag Dauwpunt Wind Bewolking  
 07:54     19:02    Daglengte: 11:08 Vandaag
14:00
14°
1006.1 hPa 0.4 mm 11.6°
10
86% warningclass
17:00
14°
1003.7 hPa 3.8 mm 12.5°
9
86% warningclass
20:00
13°
1002.4 hPa 18.8 mm 12.8°
8
86%
23:00
12°
1004.0 hPa 12.6 mm 11.6°
3
86%
 07:56     18:59    Daglengte: 11:03 Morgen
02:00
12°
1004.9 hPa   10.7°
2
69%
05:00
11°
1003.3 hPa   9.9°
2
85%
08:00
11°
999.9 hPa   10.8°
4
84%
11:00
12°
994.9 hPa 10.6 mm 11.5°
8
86%
14:00
14°
990.5 hPa 23.4 mm 13.7°
13
86% warningclass
17:00
12°
992.8 hPa 23.1 mm 9.6°
10
86%
20:00
12°
997.5 hPa 6.7 mm 7.4°
7
51%
23:00
12°
999.5 hPa   9.4°
7
7%
 07:58     18:57    Daglengte: 10:59 Donderdag 06 Okt
02:00
11°
1000.5 hPa   8.5°
8
16%
05:00
11°
1000.8 hPa 15.3 mm 8.5°
10
100%
08:00
11°
1003.2 hPa 27.9 mm 8.0°
10
98%
11:00
11°
1004.7 hPa 24.0 mm 8.5°
9
100%
14:00
12°
1005.9 hPa 25.5 mm 7.2°
11
43% warningclass
17:00
12°
1007.9 hPa 21.4 mm 8.3°
11
80%
20:00
12°
1009.2 hPa 40.0 mm 8.0°
9
45%
23:00
12°
1009.5 hPa 40.4 mm 8.3°
7
84%
 08:01     18:54    Daglengte: 10:53 Vrijdag 07 Okt
02:00
12°
1007.8 hPa 13.3 mm 9.3°
7
99%
05:00
12°
1002.6 hPa 32.7 mm 11.7°
10
100%
08:00
13°
1001.0 hPa 55.4 mm 11.4°
11
100%
11:00
13°
1000.1 hPa 159.9 mm 11.3°
12
100% warningclass
14:00
12°
999.0 hPa 167.4 mm 9.5°
9
87%
17:00
11°
999.8 hPa 57.9 mm 8.8°
6
1%
20:00
11°
999.6 hPa 59.3 mm 6.7°
7
1%
23:00
11°
998.6 hPa 61.3 mm 6.6°
9
1%
 08:03     18:51    Daglengte: 10:48 Zaterdag 08 Okt
02:00
11°
998.1 hPa 63.2 mm 6.2°
8
1%
05:00
10°
999.3 hPa 64.8 mm 6.1°
10
1%
08:00
10°
Voelt als: 5.7°
1002.3 hPa 66.5 mm 4.7°
12
1%
11:00
10°
1005.7 hPa 67.4 mm 4.1°
11
1%
14:00
11°
1008.3 hPa 68.8 mm 5.0°
11
1%
17:00
11°
1010.4 hPa 69.7 mm 5.1°
9
0%
20:00
10°
1011.7 hPa 72.3 mm 6.6°
6
1%
23:00
10°
Voelt als: 8.0°
1013.6 hPa 73.4 mm 6.1°
3
1%
 08:05     18:48    Daglengte: 10:43 Zondag 09 Okt
02:00
10°
Voelt als: 8.5°
1014.0 hPa 73.6 mm 6.2°
2
1%
05:00
10°
1013.8 hPa 73.8 mm 6.6°
3
1%
08:00
10°
1013.0 hPa 73.9 mm 7.3°
5
1%
11:00
12°
1011.6 hPa 74.1 mm 8.2°
9
1%
14:00
12°
1008.8 hPa 74.4 mm 8.9°
12
1%
17:00
12°
1005.9 hPa 74.6 mm 8.9°
14
1%
20:00
12°
1002.7 hPa 75.1 mm 9.7°
16
1%
23:00
12°
999.9 hPa 84.0 mm 11.3°
14
1%
 08:08     18:45    Daglengte: 10:37 Maandag 10 Okt
02:00
11°
1002.2 hPa 85.8 mm 6.1°
7
1%
05:00
10°
1002.2 hPa 86.2 mm 5.7°
7
0%
08:00
10°
Voelt als: 6.5°
1001.6 hPa 87.4 mm 5.6°
9
0%
11:00
10°
1001.7 hPa 89.6 mm 5.1°
10
1%
14:00
11°
1002.1 hPa 91.0 mm 5.0°
12
1%
17:00
10°
1000.6 hPa 92.9 mm 5.7°
11
1%
20:00
10°
1000.1 hPa 94.5 mm 5.6°
13
1%
23:00
10°
999.7 hPa 95.8 mm 6.5°
14
1%
 08:10     18:42    Daglengte: 10:32 Dinsdag 11 Okt
02:00
11°
999.3 hPa 96.7 mm 6.8°
15
1%
05:00
11°
999.3 hPa 97.6 mm 7.3°
14
1%
08:00
10°
1000.1 hPa 98.6 mm 5.8°
9
1%
11:00
11°
1001.2 hPa   5.3°
7
0%
14:00
11°
1002.4 hPa 197.7 mm 5.2°
7
0%
20:00
10°
1002.9 hPa 198.2 mm 5.4°
4
1%
 08:12     18:39    Daglengte: 10:27 Woensdag 12 Okt
02:00
Voelt als: 7.2°
999.6 hPa 198.6 mm 6.4°
4
1%
08:00
Voelt als: 7.7°
995.9 hPa 218.6 mm 7.9°
3
1%
14:00
10°
995.2 hPa 226.5 mm 7.6°
1
1%
20:00
Voelt als: 6.7°
1000.0 hPa 227.7 mm 6.5°
5
1%
 08:15     18:36    Daglengte: 10:21 Donderdag 13 Okt
02:00
Voelt als: 8.6°
1002.2 hPa 228.5 mm 5.9°
1
1%
08:00
Voelt als: 6.1°
1000.0 hPa 229.1 mm 6.8°
5
1%
14:00
12°
992.6 hPa 229.8 mm 5.5°
8
0%
20:00
10°
Voelt als: 6.0°
981.4 hPa 250.5 mm 7.0°
9
1%
 08:17     18:33    Daglengte: 10:16 Vrijdag 14 Okt
02:00
Voelt als: 6.0°
976.8 hPa 267.9 mm 4.8°
6
1%
08:00
10°
Voelt als: 7.2°
1000.4 hPa 2.1 mm 6.3°
6
86%
14:00
11°
1000.4 hPa 2.7 mm 6.6°
5
89%
20:00
10°
1000.5 hPa 1.7 mm 6.1°
5
76%
 08:20     18:31    Daglengte: 10:11 Zaterdag 15 Okt
02:00
10°
Voelt als: 7.1°
999.5 hPa 2.6 mm 5.9°
6
77%
08:00
10°
Voelt als: 7.2°
998.7 hPa 2.8 mm 5.7°
5
84%
14:00
11°
999.9 hPa 2.4 mm 5.9°
3
80%
20:00
10°
Voelt als: 9.6°
1001.1 hPa 2.8 mm 5.9°
1
78%
 08:22     18:28    Daglengte: 10:06 Zondag 16 Okt
02:00
10°
Voelt als: 9.5°
1003.0 hPa 1.7 mm 5.3°
0
73%
08:00
1005.0 hPa 0.9 mm 4.8°
0
66%
14:00
10°
1006.8 hPa   5.5°
0
60%
20:00
10°
1007.7 hPa 1.5 mm 5.5°
1
63%
 08:24     18:25    Daglengte: 10:01 Maandag 17 Okt
02:00
1008.8 hPa 0.8 mm 4.9°
1
56%
08:00
1009.5 hPa 0.8 mm 4.6°
0
56%
14:00
10°
1011.0 hPa 0.5 mm 4.9°
0
62%
20:00
Voelt als: 9.3°
1012.1 hPa 0.7 mm 5.2°
0
72%
 08:27     18:22    Daglengte: 9:55 Dinsdag 18 Okt
02:00
Voelt als: 8.4°
1012.3 hPa 0.7 mm 4.7°
1
63%
08:00
Voelt als: 7.8°
1011.3 hPa 1.2 mm 5.1°
2
66%
14:00
10°
1011.4 hPa 2.5 mm 5.9°
2
74%
20:00
10°
Voelt als: 8.6°
1010.9 hPa 2.5 mm 5.9°
2
76%
 08:29     18:19    Daglengte: 9:50 Woensdag 19 Okt
02:00
Voelt als: 8.1°
1010.7 hPa 1.2 mm 5.6°
2
82%
08:00
Voelt als: 8.0°
1009.9 hPa 1.8 mm 5.4°
2
77%
  CAPE Lifted Index Hail Supercell Tornado SRH 3km CL BTM PRES CL TOP PRES Swiss DWD icon SMHI TS
 07:54     19:02    Daglengte: 11:08 Vandaag
12:00 4 J/kg 7.2 K 0 % 0 % 0 % 0 m²/s² 0 0 8.34 61
13:00 5 J/kg 7.4 K 0 % 0 % 0 % 0 m²/s² 0 0 8.48 61
14:00 5 J/kg 7.5 K 0 % 0 % 0 % 0 m²/s² 0 0 7.92 61
15:00 4 J/kg 7.0 K 0 % 0 % 0 % 0 m²/s² 0 0 7.12 61
16:00 3 J/kg 5.7 K 0 % 0 % 0 % 0 m²/s² 0 0 5.82 61
17:00 4 J/kg 5.3 K 0 % 0 % 0 % 0 m²/s² 0 0 5.33 61
18:00 4 J/kg 4.4 K 0 % 0 % 0 % 0 m²/s² 0 0 4.49 61
19:00 29 J/kg 4.3 K 0 % 0 % 0 % 0 m²/s² 0 0 4.39 63
20:00 31 J/kg 4.8 K 0 % 0 % 0 % 0 m²/s² 0 0 5.01 63
21:00 0 J/kg 4.3 K 0 % 0 % 0 % 0 m²/s² 0 0 4.51 63
22:00 0 J/kg 5.5 K 0 % 0 % 0 % 0 m²/s² 0 0 7.03 61
23:00 11 J/kg 5.8 K 0 % 0 % 0 % 0 m²/s² 0 0 9.85 61
 07:56     18:59    Daglengte: 11:03 Morgen
00:00 6 J/kg 6.4 K 0 % 0 % 0 % 0 m²/s² 0 0 12.55 3
01:00 1 J/kg 6.8 K 0 % 0 % 0 % 0 m²/s² 0 0 12.14 3
02:00 1 J/kg 7.3 K 0 % 0 % 0 % 0 m²/s² 0 0 10.48 3
03:00 0 J/kg 7.7 K 0 % 0 % 0 % 0 m²/s² 0 0 8.66 3
04:00 0 J/kg 7.8 K 0 % 0 % 0 % 0 m²/s² 0 0 8.58 3
05:00 0 J/kg 7.7 K 0 % 0 % 0 % 0 m²/s² 0 0 7.91 3
06:00 0 J/kg 7.1 K 0 % 0 % 0 % 0 m²/s² 0 0 7.28 3
07:00 0 J/kg 6.3 K 0 % 0 % 0 % 0 m²/s² 0 0 6.42 3
08:00 0 J/kg 3.8 K 0 % 0 % 0 % 0 m²/s² 0 0 3.92 3
09:00 38 J/kg 5.3 K 0 % 0 % 0 % 0 m²/s² 0 0 5.42 3
10:00 45 J/kg 6.1 K 0 % 0 % 0 % 0 m²/s² 0 0 6.13 61
11:00 14 J/kg 5.4 K 0 % 0 % 0 % 0 m²/s² 0 0 5.4 61
12:00 8 J/kg 5.0 K 0 % 0 % 0 % 0 m²/s² 0 0 5.03 61
13:00 13 J/kg 5.0 K 0 % 0 % 0 % 0 m²/s² 0 0 5.09 63
14:00 34 J/kg 5.2 K 0 % 0 % 0 % 0 m²/s² 0 0 5.23 63
15:00 2 J/kg 3.0 K 0 % 0 % 0 % 0 m²/s² 0 0 3.09 61
16:00 1 J/kg 3.0 K 0 % 0 % 0 % 0 m²/s² 0 0 3.12 61
17:00 57 J/kg 4.0 K 0 % 0 % 0 % 0 m²/s² 0 0 4.18 80
18:00 21 J/kg 5.8 K 0 % 0 % 0 % 0 m²/s² 0 0 6.49 3
19:00 51 J/kg 6.1 K 0 % 0 % 0 % 0 m²/s² 0 0 7.3 3
20:00 108 J/kg 5.0 K 0 % 0 % 0 % 0 m²/s² 0 0 5.93 80
21:00 196 J/kg 2.6 K 0 % 0 % 0 % 0 m²/s² 0 0 3.65 80
22:00 418 J/kg 0.1 K 0 % 0 % 0 % 0 m²/s² 0 0 0.67 80
23:00 439 J/kg -0.3 K 0 % 0 % 0 % 0 m²/s² 0 0 3.69 2
 07:58     18:57    Daglengte: 10:59 Donderdag 06 Okt
00:00 501 J/kg -0.6 K 0 % 0 % 0 % 0 m²/s² 0 0 3.57 2
01:00 306 J/kg 0.7 K 0 % 0 % 0 % 0 m²/s² 0 0 4.18 2
02:00 384 J/kg -0.4 K 0 % 0 % 0 % 0 m²/s² 0 0 1.04 2
03:00 287 J/kg 0.1 K 0 % 0 % 0 % 0 m²/s² 0 0 0.46 3
04:00 218 J/kg 0.4 K 0 % 0 % 0 % 0 m²/s² 0 0 0.73 80
05:00 281 J/kg 0.7 K 0 % 0 % 0 % 0 m²/s² 0 0 1.15 80
06:00 174 J/kg 2.3 K 0 % 0 % 0 % 0 m²/s² 0 0 2.99 80
07:00 228 J/kg 1.7 K 0 % 0 % 0 % 0 m²/s² 0 0 2.06 3
08:00 254 J/kg 0.9 K 0 % 0 % 0 % 0 m²/s² 0 0 1.53 3
09:00 355 J/kg -0.5 K 0 % 0 % 0 % 0 m²/s² 0 0 0.1 80
10:00 366 J/kg -1.1 K 0 % 0 % 0 % 0 m²/s² 0 0 0.1 80
11:00 320 J/kg -1.4 K 0 % 0 % 0 % 0 m²/s² 0 0 -1.13 80
12:00 466 J/kg -1.9 K 0 % 0 % 0 % 0 m²/s² 0 0 -1.03 80
13:00 408 J/kg -0.6 K 0 % 0 % 0 % 0 m²/s² 0 0 0.63 80
14:00 306 J/kg 0.0 K 0 % 0 % 0 % 0 m²/s² 0 0 1.14 95
15:00 394 J/kg -0.7 K 0 % 0 % 0 % 0 m²/s² 0 0 0.56 80
16:00 319 J/kg 0.5 K 0 % 0 % 0 % 0 m²/s² 0 0 1.97 3
17:00 350 J/kg 0.2 K 0 % 0 % 0 % 0 m²/s² 0 0 1.79 80
18:00 249 J/kg 0.8 K 0 % 0 % 0 % 0 m²/s² 0 0 1.7 80
19:00 256 J/kg 0.6 K 0 % 0 % 0 % 0 m²/s² 0 0 2.85 3
20:00 235 J/kg 0.5 K 0 % 0 % 0 % 0 m²/s² 0 0 2.57 2
21:00 253 J/kg 0.5 K 0 % 0 % 0 % 0 m²/s² 0 0 2.39 2
22:00 180 J/kg 1.1 K 0 % 0 % 0 % 0 m²/s² 0 0 4.04 3
23:00 196 J/kg 0.5 K 0 % 0 % 0 % 0 m²/s² 0 0 3.47 3
 08:01     18:54    Daglengte: 10:53 Vrijdag 07 Okt
00:00 295 J/kg 0.2 K 0 % 0 % 0 % 0 m²/s² 0 0 1.55 3
01:00 264 J/kg 0.6 K 0 % 0 % 0 % 0 m²/s² 0 0 2.46 3
02:00 191 J/kg 1.8 K 0 % 0 % 0 % 0 m²/s² 0 0 2.49 80
03:00 160 J/kg 2.2 K 0 % 0 % 0 % 0 m²/s² 0 0 2.44 3
04:00 133 J/kg 1.7 K 0 % 0 % 0 % 0 m²/s² 0 0 1.85 61
05:00 53 J/kg 2.5 K 0 % 0 % 0 % 0 m²/s² 0 0 2.65 63
06:00 93 J/kg 0.0 K 0 % 0 % 0 % 0 m²/s² 0 0 0.24 80
07:00 138 J/kg 0.2 K 0 % 0 % 0 % 0 m²/s² 0 0 0.35 80
08:00 165 J/kg 0.3 K 0 % 0 % 0 % 0 m²/s² 0 0 0.96 80
09:00 184 J/kg 0.2 K 0 % 0 % 0 % 0 m²/s² 0 0 0.35
10:00 161 J/kg 0.5 K 0 % 0 % 0 % 0 m²/s² 0 0 0.74
11:00 218 J/kg 0.1 K 0 % 0 % 0 % 0 m²/s² 0 0 0.67
Temp Baro Wind Neerslag
  EWN Forecast EWN WRFDA DWD ICON FMI HIRLAM MET Norway GFS
 07:54     19:02    Daglengte: 11:08 Vandaag
14:00 13.7° 1006.1 hPa 10.1 m/s 0.4 mm 13.3° 1005.0 hPa 10.6 m/s 1.4 mm 13.6° 1006.5 hPa 10.0 m/s 0.6 mm 14.5° 1005.8 hPa 8.4 m/s 0.0 mm 13.6° 1006.3 hPa 12.1 m/s
17:00 13.6° 1003.7 hPa 9.3 m/s 3.8 mm 12.9° 1003.5 hPa 10.5 m/s 7.2 mm 13.7° 1004.8 hPa 9.1 m/s 3.3 mm 13.9° 1003.5 hPa 7.5 m/s 0.0 mm 13.2° 1003.6 hPa 11.8 m/s
20:00 13.4° 1002.4 hPa 8.0 m/s 18.8 mm 12.6° 1003.4 hPa 6.9 m/s 38.1 mm 13.4° 1002.0 hPa 8.6 m/s 11.9 mm 13.9° 1002.2 hPa 6.7 m/s 0.0 mm 11.8° 1003.9 hPa 5.6 m/s
23:00 12.5° 1004.0 hPa 3.3 m/s 12.6 mm 11.6° 1004.6 hPa 2.3 m/s 47.5 mm 12.6° 1003.9 hPa 5.4 m/s 3.3 mm 13.8° 1003.5 hPa 3.3 m/s 0.0 mm 11.4° 1005.7 hPa 2.9 m/s
 07:56     18:59    Daglengte: 11:03 Morgen
02:00 11.9° 1004.9 hPa 2.0 m/s 0.0 mm 11.1° 1004.5 hPa 0.8 m/s 47.6 mm 11.8° 1005.3 hPa 1.8 m/s 0.0 mm 13.3° 1003.7 hPa 2.2 m/s 0.0 mm 11.2° 1005.8 hPa 1.0 m/s
05:00 10.7° 1003.3 hPa 2.1 m/s 0.0 mm 10.6° 1001.6 hPa 4.3 m/s 47.6 mm 10.4° 1004.4 hPa 1.8 m/s 0.0 mm 12.5° 1002.4 hPa 1.8 m/s 0.0 mm 10.7° 1003.0 hPa 2.3 m/s
08:00 11.2° 999.9 hPa 4.4 m/s 0.0 mm 11.9° 996.7 hPa 7.2 m/s 52.9 mm 10.8° 1001.1 hPa 4.2 m/s 0.0 mm 12.7° 999.3 hPa 2.7 m/s 0.0 mm 11.4° 999.0 hPa 6.3 m/s
11:00 12.4° 994.9 hPa 7.6 m/s 10.6 mm 13.4° 994.1 hPa 10.9 m/s 67.2 mm 11.5° 996.1 hPa 6.4 m/s 1.0 mm 13.3° 994.2 hPa 7.2 m/s 0.0 mm 13.7° 994.9 hPa 12.3 m/s
14:00 14.3° 990.5 hPa 12.8 m/s 23.4 mm 13.7° 991.6 hPa 13.6 m/s 77.9 mm 14.5° 990.6 hPa 13.0 m/s 9.4 mm 14.5° 989.6 hPa 10.2 m/s 0.0 mm 13.7° 991.4 hPa 13.3 m/s
17:00 12.1° 992.8 hPa 9.9 m/s 23.1 mm 13.7° 989.7 hPa 10.9 m/s 93.5 mm 13.4° 991.0 hPa 12.3 m/s 3.8 mm 11.3° 994.6 hPa 6.7 m/s 0.0 mm 13.7° 989.3 hPa 14.1 m/s
20:00 11.8° 997.5 hPa 7.4 m/s 6.7 mm 11.3° 995.6 hPa 7.8 m/s 97.2 mm 11.2° 996.4 hPa 7.6 m/s 0.4 mm 11.9° 999.3 hPa 5.5 m/s 0.0 mm 11.6° 997.0 hPa 8.3 m/s
23:00 11.5° 999.5 hPa 7.3 m/s 0.0 mm 11.7° 997.7 hPa 9.8 m/s 99.5 mm 11.6° 998.2 hPa 7.2 m/s 1.6 mm 10.7° 1001.4 hPa 5.8 m/s 0.0 mm 11.6° 999.2 hPa 8.8 m/s
 07:58     18:57    Daglengte: 10:59 Donderdag 06 Okt
02:00 11.5° 1000.5 hPa 8.0 m/s 0.0 mm 11.9° 998.4 hPa 9.1 m/s 101.5 mm 11.9° 1000.0 hPa 8.2 m/s 0.0 mm 11.4° 1002.0 hPa 6.6 m/s 0.0 mm 11.5° 1001.1 hPa 8.7 m/s
05:00 10.9° 1000.8 hPa 9.8 m/s 15.3 mm 11.5° 999.3 hPa 11.6 m/s 105.8 mm 10.8° 1000.9 hPa 9.0 m/s 1.3 mm 11.1° 1001.3 hPa 11.9 m/s
08:00 11.1° 1003.2 hPa 9.5 m/s 27.9 mm 11.5° 1001.9 hPa 11.4 m/s 108.9 mm 11.1° 1003.3 hPa 9.2 m/s 1.2 mm 11.3° 1004.0 hPa 10.9 m/s
11:00 11.3° 1004.7 hPa 8.5 m/s 24.0 mm 11.5° 1003.3 hPa 12.0 m/s 109.5 mm 11.3° 1005.1 hPa 8.0 m/s 3.1 mm 11.2° 1005.5 hPa 12.4 m/s
14:00 11.8° 1005.9 hPa 11.0 m/s 25.5 mm 12.2° 1005.4 hPa 14.9 m/s 115.2 mm 11.7° 1005.7 hPa 9.8 m/s 2.6 mm 11.4° 1007.5 hPa 13.2 m/s
17:00 11.8° 1007.9 hPa 11.2 m/s 21.4 mm 11.8° 1006.8 hPa 14.1 m/s 116.8 mm 11.5° 1007.7 hPa 9.5 m/s 1.0 mm 11.3° 1009.3 hPa 13.5 m/s
20:00 11.9° 1009.2 hPa 9.1 m/s 40.0 mm 11.7° 1009.0 hPa 13.0 m/s 117.8 mm 11.8° 1009.0 hPa 8.5 m/s 0.7 mm 11.3° 1011.0 hPa 12.2 m/s
23:00 12.4° 1009.5 hPa 7.4 m/s 40.4 mm 12.4° 1009.6 hPa 9.5 m/s 118.0 mm 12.2° 1009.8 hPa 6.0 m/s 0.0 mm 11.8° 1011.3 hPa 9.5 m/s
 08:01     18:54    Daglengte: 10:53 Vrijdag 07 Okt
02:00 12.2° 1007.8 hPa 7.3 m/s 13.3 mm 12.4° 1008.4 hPa 9.1 m/s 118.3 mm 12.2° 1007.7 hPa 6.8 m/s 0.3 mm 12.0° 1009.8 hPa 9.0 m/s
05:00 12.3° 1002.6 hPa 9.9 m/s 32.7 mm 11.3° 1003.8 hPa 7.9 m/s 128.4 mm 12.6° 1002.2 hPa 10.3 m/s 4.7 mm 12.0° 1005.3 hPa 11.4 m/s
08:00 13.0° 1001.0 hPa 10.8 m/s 55.4 mm 12.9° 1001.5 hPa 12.2 m/s 156.7 mm 13.0° 1000.8 hPa 10.4 m/s 4.8 mm 13.3° 1003.0 hPa 12.9 m/s
11:00 12.7° 1000.1 hPa 12.2 m/s 159.9 mm 12.7° 1000.1 hPa 12.2 m/s 159.9 mm 12.7° 1001.8 hPa 11.4 m/s
14:00 12.3° 999.0 hPa 8.9 m/s 167.4 mm 12.3° 999.0 hPa 8.9 m/s 167.5 mm 11.9° 1000.2 hPa 8.4 m/s
17:00 11.1° 999.8 hPa 5.7 m/s 57.9 mm 11.1° 999.8 hPa 5.7 m/s 57.9 mm
20:00 10.7° 999.6 hPa 7.1 m/s 59.3 mm 10.7° 999.6 hPa 7.1 m/s 59.3 mm
23:00 10.8° 998.6 hPa 8.9 m/s 61.3 mm 10.8° 998.6 hPa 8.9 m/s 61.3 mm
 08:03     18:51    Daglengte: 10:48 Zaterdag 08 Okt
02:00 10.8° 998.1 hPa 8.3 m/s 63.2 mm 10.8° 998.1 hPa 8.3 m/s 63.2 mm
05:00 10.4° 999.3 hPa 10.4 m/s 64.8 mm 10.4° 999.3 hPa 10.4 m/s 64.8 mm
08:00 9.9° 1002.3 hPa 11.8 m/s 66.5 mm 9.9° 1002.3 hPa 11.8 m/s 66.5 mm
11:00 10.1° 1005.7 hPa 11.2 m/s 67.4 mm 10.1° 1005.7 hPa 11.2 m/s 67.4 mm
14:00 10.6° 1008.3 hPa 11.1 m/s 68.8 mm 10.6° 1008.3 hPa 11.1 m/s 68.8 mm
17:00 10.7° 1010.4 hPa 8.9 m/s 69.7 mm 10.7° 1010.4 hPa 8.9 m/s 69.7 mm
20:00 10.1° 1011.7 hPa 6.1 m/s 72.3 mm 10.1° 1011.7 hPa 6.1 m/s 72.3 mm
23:00 9.6° 1013.6 hPa 3.0 m/s 73.4 mm 9.6° 1013.6 hPa 3.0 m/s 73.4 mm
 08:05     18:48    Daglengte: 10:43 Zondag 09 Okt
02:00 9.7° 1014.0 hPa 2.4 m/s 73.6 mm 9.7° 1014.0 hPa 2.4 m/s 73.6 mm
05:00 10.0° 1013.8 hPa 2.7 m/s 73.8 mm 10.0° 1013.8 hPa 2.7 m/s 73.8 mm
08:00 10.2° 1013.0 hPa 4.9 m/s 73.9 mm 10.2° 1013.0 hPa 4.9 m/s 73.9 mm
11:00 11.5° 1011.6 hPa 9.2 m/s 74.1 mm 11.5° 1011.6 hPa 9.2 m/s 74.1 mm
14:00 12.0° 1008.8 hPa 11.8 m/s 74.4 mm 12.0° 1008.8 hPa 11.9 m/s 74.4 mm
17:00 12.4° 1005.9 hPa 14.3 m/s 74.6 mm 12.4° 1005.9 hPa 14.3 m/s 74.6 mm
20:00 12.1° 1002.7 hPa 15.6 m/s 75.1 mm 12.1° 1002.7 hPa 15.6 m/s 75.1 mm
23:00 12.2° 999.9 hPa 14.2 m/s 84.0 mm 12.2° 999.9 hPa 14.2 m/s 84.0 mm
 08:08     18:45    Daglengte: 10:37 Maandag 10 Okt
02:00 11.1° 1002.2 hPa 7.0 m/s 85.8 mm 11.1° 1002.2 hPa 7.0 m/s 85.8 mm
05:00 10.4° 1002.2 hPa 7.3 m/s 86.2 mm 10.4° 1002.2 hPa 7.3 m/s 86.2 mm
08:00 10.0° 1001.6 hPa 8.6 m/s 87.4 mm 10.0° 1001.6 hPa 8.6 m/s 87.4 mm
11:00 10.2° 1001.7 hPa 10.5 m/s 89.6 mm 10.2° 1001.7 hPa 10.5 m/s 89.6 mm
14:00 10.6° 1002.1 hPa 11.6 m/s 91.0 mm 10.6° 1002.1 hPa 11.6 m/s 91.0 mm
17:00 10.3° 1000.6 hPa 11.4 m/s 92.9 mm 10.3° 1000.6 hPa 11.4 m/s 92.9 mm
20:00 10.2° 1000.1 hPa 13.2 m/s 94.5 mm 10.2° 1000.1 hPa 13.2 m/s 94.5 mm
23:00 10.4° 999.7 hPa 14.2 m/s 95.8 mm 10.4° 999.7 hPa 14.2 m/s 95.8 mm
 08:10     18:42    Daglengte: 10:32 Dinsdag 11 Okt
02:00 10.7° 999.3 hPa 14.7 m/s 96.7 mm 10.7° 999.3 hPa 14.7 m/s 96.7 mm
05:00 10.6° 999.3 hPa 13.8 m/s 97.6 mm 10.6° 999.3 hPa 13.8 m/s 97.6 mm
08:00 10.4° 1000.1 hPa 9.4 m/s 98.6 mm 10.4° 1000.1 hPa 9.4 m/s 98.6 mm
11:00 11.0° 1001.2 hPa 7.1 m/s 98.8 mm 11.0° 1001.2 hPa 7.1 m/s 98.8 mm
14:00 11.3° 1002.4 hPa 6.5 m/s 98.9 mm 11.3° 1002.4 hPa 6.5 m/s 98.9 mm
20:00 10.4° 1002.9 hPa 4.1 m/s 99.2 mm 10.4° 1002.9 hPa 4.1 m/s 99.2 mm
 08:12     18:39    Daglengte: 10:27 Woensdag 12 Okt
02:00 9.5° 999.6 hPa 4.4 m/s 99.4 mm 9.5° 999.6 hPa 4.4 m/s 99.4 mm
08:00 9.3° 995.9 hPa 3.1 m/s 111.6 mm 9.3° 995.9 hPa 3.1 m/s 111.6 mm
14:00 10.3° 995.2 hPa 1.4 m/s 113.5 mm 10.3° 995.2 hPa 1.4 m/s 113.5 mm
20:00 9.4° 1000.0 hPa 5.3 m/s 114.0 mm 9.4° 1000.0 hPa 5.3 m/s 114.0 mm
 08:15     18:36    Daglengte: 10:21 Donderdag 13 Okt
02:00 8.6° 1002.2 hPa 0.9 m/s 114.3 mm 8.6° 1002.2 hPa 0.9 m/s 114.3 mm
08:00 8.9° 1000.0 hPa 5.2 m/s 114.7 mm 8.9° 1000.0 hPa 5.2 m/s 114.7 mm
14:00 11.6° 992.6 hPa 8.0 m/s 114.9 mm 11.6° 992.6 hPa 8.0 m/s 114.9 mm
20:00 9.6° 981.4 hPa 8.6 m/s 131.6 mm 9.6° 981.4 hPa 8.6 m/s 131.6 mm
 08:17     18:33    Daglengte: 10:16 Vrijdag 14 Okt
02:00 9.1° 976.8 hPa 6.4 m/s 134.4 mm 9.1° 976.8 hPa 6.4 m/s 134.4 mm
08:00 9.9° 1000.4 hPa 5.6 m/s 2.1 mm
14:00 10.9° 1000.4 hPa 5.4 m/s 2.7 mm
20:00 10.1° 1000.5 hPa 4.7 m/s 1.7 mm
 08:20     18:31    Daglengte: 10:11 Zaterdag 15 Okt
02:00 9.7° 999.5 hPa 5.6 m/s 2.6 mm
08:00 9.7° 998.7 hPa 4.9 m/s 2.8 mm
14:00 10.9° 999.9 hPa 2.6 m/s 2.4 mm
20:00 9.9° 1001.1 hPa 1.5 m/s 2.8 mm
 08:22     18:28    Daglengte: 10:06 Zondag 16 Okt
02:00 9.5° 1003.0 hPa 0.2 m/s 1.7 mm
08:00 9.2° 1005.0 hPa 0.3 m/s 0.9 mm
14:00 10.5° 1006.8 hPa 0.3 m/s 0.0 mm
20:00 9.7° 1007.7 hPa 0.5 m/s 1.5 mm
 08:24     18:25    Daglengte: 10:01 Maandag 17 Okt
02:00 9.1° 1008.8 hPa 0.5 m/s 0.8 mm
08:00 8.6° 1009.5 hPa 0.3 m/s 0.8 mm
14:00 10.1° 1011.0 hPa 0.4 m/s 0.5 mm
20:00 9.3° 1012.1 hPa 0.4 m/s 0.7 mm
 08:27     18:22    Daglengte: 9:55 Dinsdag 18 Okt
02:00 8.9° 1012.3 hPa 1.5 m/s 0.7 mm
08:00 8.9° 1011.3 hPa 2.1 m/s 1.2 mm
14:00 10.3° 1011.4 hPa 2.4 m/s 2.5 mm
20:00 9.6° 1010.9 hPa 2.1 m/s 2.5 mm
 08:29     18:19    Daglengte: 9:50 Woensdag 19 Okt
02:00 9.2° 1010.7 hPa 2.2 m/s 1.2 mm
08:00 9.0° 1009.9 hPa 2.1 m/s 1.8 mm
FMI Hirlam - 7.5 km EWN WRFDA - 12 km DWD ICON - 7 km GFS - 25 km Basiskaart






























































Updatetijd (Europe/Amsterdam) Resolutie Lengte Stap
FMI Hirlam 07:00, 13:00, 19:00, 01:00 7.5 km 49h 1h
EWN WRFDA 09:45, 15:45, 21:45, 03:45 12 km 73h 1h
DWD ICON 05:45, 11:45, 17:45, 23:45 7 km 75h 1h
GFS 08:00, 14:00, 20:00, 02:00 25 km 237h 3h
30+ mm
25-30 mm
20-25 mm
15-20 mm
10-15 mm
6-10 mm
4-6 mm
2-4 mm
1-2 mm
0.5-1 mm
0.2-0.5 mm
0.1-0.2 mm
30+ mm
25-30 mm
20-25 mm
15-20 mm
10-15 mm
6-10 mm
4-6 mm
2-4 mm
1-2 mm
0.5-1 mm
0.2-0.5 mm
0.1-0.2 mm
Sneeuwval
Natte sneeuw
Hagel
Vorst
30+ mm
25-30 mm
20-25 mm
15-20 mm
10-15 mm
6-10 mm
4-6 mm
2-4 mm
1-2 mm
0.5-1 mm
0.2-0.5 mm
0.1-0.2 mm
Sneeuwval
Natte sneeuw
Hagel
Vorst
Onweer
50 mm
40 mm
30 mm
26 mm
22 mm
18 mm
14 mm
10 mm
9 mm
8 mm
7 mm
6 mm
5 mm
4.5 mm
4 mm
3.5 mm
3 mm
2.5 mm
2 mm
1.5 mm
1 mm
0.8 mm
0.6 mm
0.4 mm
0.2 mm
0.05 mm
35°
30°
25°
20°
15°
10°